Mojave, CA

1:39 AM PST on December 11, 2019 (GMT -0800)
Mojave

Weather History for KMHV - May, 2019

Change the Weather History Date:

Sunday, May 26, 2019

  Actual Average Record
Temperature  
Mean Temperature 50 °F -  
Max Temperature 57 °F 84 °F 96 °F (1983)
Min Temperature 44 °F 58 °F 44 °F (1998)
Degree Days  
Heating Degree Days 14    
Moisture  
Dew Point 42 °F    
Average Humidity 73    
Maximum Humidity 87    
Minimum Humidity 51    
Precipitation  
Precipitation 0.22 in - - ()
Sea Level Pressure  
Sea Level Pressure 29.83 in    
Wind  
Wind Speed 18 mph (WSW)    
Max Wind Speed 29 mph    
Max Gust Speed 40 mph    
Visibility 10 miles    
Events      
Averages and records for this station are not official NWS values.
T = Trace of Precipitation, MM = Missing Value Source: NWS Daily Summary

Daily Weather History Graph

Daily Weather History Graph

Search for Another Location

Airport or City:

Astronomy

May. 26, 2019 Rise Set
Actual Time 5:42 AM PDT 7:57 PM PDT
Civil Twilight 5:13 AM PDT 8:26 PM PDT
Nautical Twilight 4:37 AM PDT 9:01 PM PDT
Astronomical Twilight 3:59 AM PDT 9:40 PM PDT
Moon 1:37 AM PDT (5/26) 12:38 PM PDT (5/26)
Length of Visible Light 15h 13m
Length of Day
14h 15m
Waning Gibbous, 49% of the Moon is Illuminated
May 26
Waning Gibbous
Jun 3
New
Jun 9
First Quarter
Jun 17
Full
Jun 25
Last Quarter

Hourly Weather History & Observations

Time (PDT) Temp. Windchill Dew Point Humidity Pressure Visibility Wind Dir Wind Speed Gust Speed Precip Events Conditions
12:00 AM 53.6 °F - 44.6 °F 72% 29.79 in 10.0 mi SW 12.7 mph - N/A   Partly Cloudy
12:20 AM 53.6 °F - 44.6 °F 72% 29.79 in 10.0 mi SW 13.8 mph - N/A   Partly Cloudy
12:40 AM 51.8 °F - 44.6 °F 76% 29.78 in 10.0 mi SW 11.5 mph - N/A   Scattered Clouds
1:00 AM 51.8 °F - 44.6 °F 76% 29.78 in 10.0 mi SW 13.8 mph - N/A   Scattered Clouds
1:20 AM 51.8 °F - 44.6 °F 76% 29.78 in 10.0 mi SW 15.0 mph - N/A   Partly Cloudy
1:40 AM 51.8 °F - 44.6 °F 76% 29.78 in 10.0 mi SW 13.8 mph - N/A   Partly Cloudy
2:00 AM 50.0 °F - 44.6 °F 82% 29.77 in 10.0 mi SW 15.0 mph - N/A   Partly Cloudy
2:20 AM 50.0 °F - 44.6 °F 82% 29.77 in 10.0 mi SW 13.8 mph 19.6 mph N/A   Partly Cloudy
2:40 AM 50.0 °F - 44.6 °F 82% 29.77 in 10.0 mi SW 18.4 mph - N/A   Partly Cloudy
3:00 AM 51.8 °F - 44.6 °F 76% 29.77 in 10.0 mi SW 18.4 mph - N/A   Partly Cloudy
3:20 AM 51.8 °F - 42.8 °F 71% 29.77 in 10.0 mi SW 18.4 mph 24.2 mph N/A   Clear
3:40 AM 51.8 °F - 42.8 °F 71% 29.77 in 10.0 mi SW 19.6 mph 28.8 mph N/A   Clear
4:00 AM 50.0 °F - 42.8 °F 76% 29.77 in 10.0 mi SW 17.3 mph 24.2 mph N/A   Clear
4:20 AM 50.0 °F - 41.0 °F 71% 29.76 in 10.0 mi SW 18.4 mph 25.3 mph N/A   Clear
4:40 AM 51.8 °F - 39.2 °F 62% 29.76 in 10.0 mi SW 20.7 mph 29.9 mph N/A   Partly Cloudy
5:00 AM 50.0 °F - 41.0 °F 71% 29.76 in 10.0 mi SW 23.0 mph - N/A   Clear
5:20 AM 50.0 °F - 41.0 °F 71% 29.76 in 10.0 mi SW 25.3 mph 31.1 mph N/A   Clear
5:40 AM 50.0 °F - 41.0 °F 71% 29.77 in 10.0 mi SW 24.2 mph - N/A   Clear
6:00 AM 50.0 °F - 41.0 °F 71% 29.77 in 10.0 mi SW 16.1 mph 21.9 mph N/A   Clear
6:20 AM 50.0 °F - 41.0 °F 71% 29.77 in 10.0 mi SW 17.3 mph 23.0 mph N/A   Clear
6:40 AM 51.8 °F - 41.0 °F 67% 29.77 in 10.0 mi SW 19.6 mph 26.5 mph N/A   Clear
7:00 AM 51.8 °F - 42.8 °F 71% 29.78 in 10.0 mi WSW 24.2 mph 32.2 mph N/A   Clear
7:20 AM 51.8 °F - 41.0 °F 67% 29.78 in 10.0 mi SW 24.2 mph 32.2 mph N/A   Clear
7:40 AM 51.8 °F - 41.0 °F 67% 29.78 in 10.0 mi SW 28.8 mph 38.0 mph N/A   Clear
8:00 AM 51.8 °F - 41.0 °F 67% 29.80 in 10.0 mi WSW 28.8 mph 35.7 mph N/A   Scattered Clouds
8:20 AM 51.8 °F - 41.0 °F 67% 29.81 in 10.0 mi WSW 19.6 mph 32.2 mph N/A   Scattered Clouds
8:40 AM 51.8 °F - 41.0 °F 67% 29.83 in 10.0 mi West 17.3 mph - N/A   Mostly Cloudy
9:00 AM 51.8 °F - 41.0 °F 67% 29.84 in 10.0 mi West 23.0 mph 28.8 mph N/A   Overcast
9:20 AM 51.8 °F - 39.2 °F 62% 29.84 in 10.0 mi West 18.4 mph 26.5 mph N/A   Mostly Cloudy
9:40 AM 51.8 °F - 39.2 °F 62% 29.84 in 10.0 mi WNW 20.7 mph 31.1 mph N/A   Mostly Cloudy
10:00 AM 53.6 °F - 39.2 °F 58% 29.84 in 10.0 mi West 19.6 mph 25.3 mph N/A   Mostly Cloudy
10:20 AM 53.6 °F - 39.2 °F 58% 29.84 in 10.0 mi West 16.1 mph 23.0 mph N/A   Mostly Cloudy
10:40 AM 55.4 °F - 39.2 °F 54% 29.84 in 10.0 mi West 9.2 mph 16.1 mph N/A   Mostly Cloudy
11:00 AM 57.2 °F - 39.2 °F 51% 29.84 in 10.0 mi SSW 17.3 mph 29.9 mph N/A   Overcast
11:20 AM 57.2 °F - 39.2 °F 51% 29.84 in 10.0 mi SW 26.5 mph 33.4 mph N/A   Overcast
11:40 AM 57.2 °F - 39.2 °F 51% 29.85 in 10.0 mi SW 25.3 mph 34.5 mph N/A   Overcast
12:00 PM 55.4 °F - 41.0 °F 58% 29.86 in 10.0 mi SW 25.3 mph 31.1 mph N/A   Overcast
12:20 PM 55.4 °F - 41.0 °F 58% 29.86 in 10.0 mi SW 23.0 mph - N/A   Overcast
12:40 PM 53.6 °F - 42.8 °F 67% 29.86 in 10.0 mi SW 23.0 mph - N/A   Overcast
1:00 PM 53.6 °F - 46.4 °F 77% 29.87 in 10.0 mi SW 20.7 mph 31.1 mph N/A   Overcast
1:20 PM 50.0 °F - 46.4 °F 87% 29.87 in 10.0 mi SW 18.4 mph 26.5 mph N/A   Overcast
1:40 PM 50.0 °F - 46.4 °F 87% 29.87 in 10.0 mi SSW 20.7 mph 31.1 mph N/A   Overcast
2:00 PM 50.0 °F - 46.4 °F 87% 29.86 in 10.0 mi SW 23.0 mph - N/A   Overcast
2:20 PM 51.8 °F - 42.8 °F 71% 29.86 in 10.0 mi SSW 23.0 mph 29.9 mph N/A   Overcast
2:40 PM 53.6 °F - 42.8 °F 67% 29.85 in 10.0 mi SW 19.6 mph 31.1 mph N/A   Overcast
3:20 PM 53.6 °F - 42.8 °F 67% 29.84 in 10.0 mi SW 25.3 mph 36.8 mph N/A   Overcast
3:40 PM 51.8 °F - 44.6 °F 76% 29.84 in 10.0 mi SW 26.5 mph 33.4 mph N/A   Overcast
4:00 PM 51.8 °F - 46.4 °F 82% 29.83 in 10.0 mi SW 27.6 mph - N/A   Overcast
4:20 PM 50.0 °F - 46.4 °F 87% 29.84 in 10.0 mi SW 23.0 mph 29.9 mph N/A   Overcast
4:40 PM 50.0 °F - 46.4 °F 87% 29.83 in 10.0 mi SW 21.9 mph 28.8 mph N/A   Overcast
5:00 PM 50.0 °F - 44.6 °F 82% 29.83 in 10.0 mi WSW 23.0 mph 29.9 mph 0.05 in   Mostly Cloudy
5:20 PM 50.0 °F - 44.6 °F 82% 29.84 in 10.0 mi SW 19.6 mph - N/A   Mostly Cloudy
6:00 PM 48.2 °F - 44.6 °F 87% 29.85 in 10.0 mi West 9.2 mph - 0.09 in   Overcast
6:40 PM 48.2 °F - 44.6 °F 87% 29.86 in 10.0 mi WSW 10.4 mph - N/A   Overcast
7:00 PM 48.2 °F - 44.6 °F 87% 29.86 in 10.0 mi SW 12.7 mph - 0.08 in   Overcast
7:20 PM 48.2 °F - 44.6 °F 87% 29.87 in 10.0 mi West 10.4 mph - N/A   Overcast
7:40 PM 48.2 °F - 42.8 °F 82% 29.87 in 10.0 mi WSW 11.5 mph - N/A   Overcast
8:20 PM 46.4 °F 40.1 °F 41.0 °F 81% 29.89 in 10.0 mi West 15.0 mph 23.0 mph N/A   Overcast
8:40 PM 46.4 °F 39.8 °F 39.2 °F 76% 29.89 in 10.0 mi West 16.1 mph 26.5 mph N/A   Overcast
9:00 PM 46.4 °F 38.3 °F 39.2 °F 76% 29.88 in 10.0 mi WSW 23.0 mph 29.9 mph N/A   Overcast
9:20 PM 44.6 °F 35.7 °F 39.2 °F 81% 29.87 in 10.0 mi West 24.2 mph - N/A   Mostly Cloudy
9:40 PM 44.6 °F 35.1 °F 37.4 °F 76% 29.85 in 10.0 mi West 27.6 mph 40.3 mph N/A   Clear
10:00 PM 46.4 °F 38.5 °F 37.4 °F 71% 29.88 in 10.0 mi West 21.9 mph 31.1 mph N/A   Clear
10:40 PM 44.6 °F 39.2 °F 37.4 °F 76% 29.90 in 10.0 mi West 10.4 mph 20.7 mph N/A   Mostly Cloudy
11:00 PM 46.4 °F 41.5 °F 37.4 °F 71% 29.90 in 10.0 mi West 10.4 mph - N/A   Overcast
11:20 PM 46.4 °F 41.5 °F 37.4 °F 71% 29.91 in 10.0 mi WSW 10.4 mph 19.6 mph N/A   Overcast
11:40 PM 44.6 °F 39.2 °F 37.4 °F 76% 29.91 in 10.0 mi SW 10.4 mph - N/A   Overcast